Time,TemperatureF,DewpointF,PressureIn,WindDirection,WindDirectionDegrees,WindSpeedMPH,WindSpeedGustMPH,Humidity,HourlyPrecipIn,Conditions,Clouds,dailyrainin,SoftwareType,DateUTC
2013-08-21 00:14:00,67.0,66.0,30.24,South,172,0.0,0.0,98,0.00,,,0.00,,2013-08-21 04:14:00,
2013-08-21 00:24:00,67.0,66.0,30.25,South,172,0.0,0.0,98,0.00,,,0.00,,2013-08-21 04:24:00,
2013-08-21 00:54:00,67.0,66.0,30.24,South,172,0.0,0.0,98,0.00,,,0.00,,2013-08-21 04:54:00,
2013-08-21 01:23:00,67.0,66.0,30.25,South,172,0.0,0.0,98,0.00,,,0.00,,2013-08-21 05:23:00,
2013-08-21 01:52:00,67.0,66.0,30.24,South,172,0.0,0.0,98,0.00,,,0.00,,2013-08-21 05:52:00,
2013-08-21 02:12:00,66.0,65.0,30.24,South,172,0.0,0.0,98,0.00,,,0.00,,2013-08-21 06:12:00,
2013-08-21 02:22:00,66.0,65.0,30.24,South,172,0.0,0.0,98,0.00,,,0.00,,2013-08-21 06:22:00,
2013-08-21 02:42:00,66.0,65.0,30.24,South,172,0.0,0.0,98,0.00,,,0.00,,2013-08-21 06:42:00,
2013-08-21 02:52:00,66.0,65.0,30.23,South,172,0.0,0.0,98,0.00,,,0.00,,2013-08-21 06:52:00,
2013-08-21 03:22:00,66.0,65.0,30.22,South,172,0.0,0.0,98,0.00,,,0.00,,2013-08-21 07:22:00,
2013-08-21 03:53:00,66.0,66.0,30.22,South,172,0.0,0.0,99,0.00,,,0.00,,2013-08-21 07:53:00,
2013-08-21 04:22:00,66.0,66.0,30.21,South,172,0.0,0.0,99,0.00,,,0.00,,2013-08-21 08:22:00,
2013-08-21 04:53:00,66.0,66.0,30.22,South,172,0.0,0.0,99,0.00,,,0.00,,2013-08-21 08:53:00,
2013-08-21 05:22:00,65.0,65.0,30.23,South,172,0.0,0.0,99,0.00,,,0.00,,2013-08-21 09:22:00,
2013-08-21 05:54:00,66.0,66.0,30.22,South,172,0.0,0.0,99,0.00,,,0.00,,2013-08-21 09:54:00,
2013-08-21 06:23:00,66.0,66.0,30.22,South,172,0.0,0.0,99,0.00,,,0.00,,2013-08-21 10:23:00,
2013-08-21 06:53:00,66.0,66.0,30.24,South,172,0.0,0.0,99,0.00,,,0.00,,2013-08-21 10:53:00,
2013-08-21 07:22:00,66.0,66.0,30.26,South,172,0.0,0.0,99,0.00,,,0.00,,2013-08-21 11:22:00,
2013-08-21 07:53:00,66.0,66.0,30.26,South,172,0.0,0.0,99,0.00,,,0.00,,2013-08-21 11:53:00,
2013-08-21 08:12:00,66.0,66.0,30.26,South,172,0.0,0.0,99,0.00,,,0.00,,2013-08-21 12:12:00,
2013-08-21 08:22:00,67.0,67.0,30.27,South,172,0.0,0.0,99,0.00,,,0.00,,2013-08-21 12:22:00,
2013-08-21 08:52:00,68.0,68.0,30.27,South,172,0.0,0.0,99,0.00,,,0.00,,2013-08-21 12:52:00,
2013-08-21 09:21:00,69.0,69.0,30.27,South,172,0.0,0.0,99,0.00,,,0.00,,2013-08-21 13:21:00,
2013-08-21 09:52:00,70.0,70.0,30.27,East,79,2.0,3.0,99,0.00,,,0.00,,2013-08-21 13:52:00,
2013-08-21 10:21:00,71.0,70.0,30.27,East,98,2.0,3.0,98,0.00,,,0.00,,2013-08-21 14:21:00,
2013-08-21 10:52:00,73.0,71.0,30.28,SSW,208,1.0,2.0,95,0.00,,,0.00,,2013-08-21 14:52:00,
2013-08-21 11:11:00,73.0,71.0,30.28,SW,215,1.0,4.0,93,0.00,,,0.00,,2013-08-21 15:11:00,
2013-08-21 11:22:00,74.0,71.0,30.28,SSW,200,2.0,5.0,91,0.00,,,0.00,,2013-08-21 15:22:00,
2013-08-21 11:55:00,75.0,72.0,30.28,West,276,3.0,5.0,89,0.00,,,0.00,,2013-08-21 15:55:00,
2013-08-21 12:24:00,76.0,71.0,30.28,West,264,3.0,6.0,85,0.00,,,0.00,,2013-08-21 16:24:00,
2013-08-21 12:53:00,76.0,71.0,30.27,WSW,246,4.0,5.0,85,0.00,,,0.00,,2013-08-21 16:53:00,
2013-08-21 13:23:00,77.0,71.0,30.26,WSW,250,3.0,5.0,83,0.00,,,0.00,,2013-08-21 17:23:00,
2013-08-21 13:53:00,77.0,72.0,30.26,West,271,2.0,4.0,85,0.00,,,0.00,,2013-08-21 17:53:00,
2013-08-21 14:12:00,77.0,72.0,30.26,WSW,241,3.0,5.0,85,0.00,,,0.00,,2013-08-21 18:12:00,
2013-08-21 14:22:00,77.0,71.0,30.25,WNW,288,4.0,6.0,82,0.00,,,0.00,,2013-08-21 18:22:00,
2013-08-21 14:52:00,79.0,72.0,30.23,SSW,194,1.0,5.0,78,0.00,,,0.00,,2013-08-21 18:52:00,
2013-08-21 15:12:00,80.0,72.0,30.22,SSW,199,2.0,4.0,76,0.00,,,0.00,,2013-08-21 19:12:00,
2013-08-21 15:22:00,80.0,72.0,30.22,West,259,2.0,4.0,77,0.00,,,0.00,,2013-08-21 19:22:00,
2013-08-21 15:52:00,79.0,72.0,30.21,West,277,2.0,7.0,79,0.00,,,0.00,,2013-08-21 19:52:00,
2013-08-21 16:22:00,78.0,72.0,30.21,WSW,246,3.0,5.0,81,0.00,,,0.00,,2013-08-21 20:22:00,
2013-08-21 16:52:00,78.0,72.0,30.20,West,274,2.0,5.0,82,0.00,,,0.00,,2013-08-21 20:52:00,
2013-08-21 17:22:00,78.0,72.0,30.20,West,263,3.0,7.0,81,0.00,,,0.00,,2013-08-21 21:22:00,
2013-08-21 17:55:00,77.0,71.0,30.19,SW,222,0.0,3.0,83,0.00,,,0.00,,2013-08-21 21:55:00,
2013-08-21 18:24:00,78.0,72.0,30.18,SW,230,1.0,4.0,82,0.00,,,0.00,,2013-08-21 22:24:00,
2013-08-21 18:53:00,77.0,71.0,30.17,SW,227,3.0,4.0,83,0.00,,,0.00,,2013-08-21 22:53:00,
2013-08-21 19:13:00,76.0,71.0,30.17,SSW,194,2.0,4.0,84,0.00,,,0.00,,2013-08-21 23:13:00,
2013-08-21 19:22:00,76.0,71.0,30.17,SW,229,1.0,3.0,85,0.00,,,0.00,,2013-08-21 23:22:00,
2013-08-21 19:53:00,75.0,72.0,30.18,West,276,1.0,2.0,89,0.00,,,0.00,,2013-08-21 23:53:00,
2013-08-21 20:22:00,74.0,71.0,30.17,West,276,0.0,0.0,91,0.00,,,0.00,,2013-08-22 00:22:00,
2013-08-21 20:42:00,73.0,71.0,30.18,West,276,1.0,2.0,92,0.00,,,0.00,,2013-08-22 00:42:00,
2013-08-21 20:52:00,73.0,71.0,30.19,West,276,0.0,0.0,94,0.00,,,0.00,,2013-08-22 00:52:00,
2013-08-21 21:11:00,72.0,70.0,30.18,West,276,0.0,1.0,94,0.00,,,0.00,,2013-08-22 01:11:00,
2013-08-21 21:22:00,72.0,70.0,30.18,West,276,0.0,2.0,95,0.00,,,0.00,,2013-08-22 01:22:00,
2013-08-21 21:52:00,71.0,70.0,30.19,West,276,0.0,2.0,96,0.00,,,0.00,,2013-08-22 01:52:00,
2013-08-21 22:22:00,71.0,70.0,30.21,West,276,0.0,0.0,97,0.00,,,0.00,,2013-08-22 02:22:00,
2013-08-21 23:22:00,71.0,70.0,30.21,West,276,0.0,0.0,98,0.00,,,0.00,,2013-08-22 03:22:00,
2013-08-21 23:54:00,70.0,69.0,30.21,West,276,0.0,0.0,98,0.00,,,0.00,,2013-08-22 03:54:00,